www.pogodaiklimat.ru

Погода и климат >> Архив погоды >> Россия >> Ханты-Мансийский АО >> Ваховск


ПОГОДА в Ваховске

  • Прогноз погоды в Ваховске
  • Монитор погоды в Ваховске
  • Климат города

АРХИВ ПОГОДЫ в Ваховске

Время (UTC), дата Ветер
(напр.,м/с)
 
Видим.   Явления Облачность Т
(С)
Тd
(С)
f
(%)
Тe
(С)
Тes
(С)
Комфортность P
(гПа)
Po
(гПа)
Тmin
(С)
Tmax
(С)
R
(мм)
R24
(мм)
S
(см)
06 17.08 СЗ 3 н/о н/о +14.0 +9.5 74 +13 +13 1016.7 1010.1
09 17.08 СЗ 3 10 км 8/8 600 м
[Cu med, cong]
+17.0 +8.6 58 +17 +18 1016.8 1010.3
12 17.08 С 3 н/о н/о +17.3 +8.1 55 +17 +17 1017.0 1010.5
18 17.08 СЗ 1 10 км ясно +8.4 +7.0 91 +8 +8 1019.4 1012.7
21 17.08 СЗ 1 10 км 3/0
[Ci fib]
+7.4 +6.3 93 +6 +6 1020.1 1013.3
00 18.08 штиль 0 10 км 8/0
[Ci fib]
+6.0 +5.1 94 +5 +5 1021.3 1014.5
03 18.08 С 1 10 км 6/0
[Ci fib]
+13.4 +8.3 71 +14 +18 1021.7 1015.1 +5.9
06 18.08 С 3 н/о н/о +16.8 +6.0 49 +17 +17 1021.6 1015.0
09 18.08 СЗ 3 10 км 6/6 600 м
[Cu med, cong]
+18.2 +6.6 47 +18 +21 1021.0 1014.4
12 18.08 СЗ 1 н/о н/о +13.6 +8.8 73 +14 +14 1020.5 1013.8
18 18.08 Ю 1 10 км ясно +6.7 +5.8 94 +6 +6 1020.7 1013.9
21 18.08 Ю 1 10 км 8/8 600 м
[Cb cap]
+8.4 +7.3 93 +8 +8 1019.9 1013.1
00 19.08 Ю 1 10 км 10/10 600 м
[Sc]
+8.8 +7.4 91 +8 +8 1019.2 1012.4
03 19.08 ЮЗ 1 10 км 10/4 600 м
[Sc Ci fib]
+13.2 +9.3 77 +13 +16 1018.8 1012.2 +5.8
06 19.08 Ю 1 н/о н/о +15.6 +7.7 59 +16 +16 1017.8 1011.3
09 19.08 ЮЗ 1 10 км 10/8 600 м
[Sc Ci fib]
+16.9 +6.6 51 +18 +19 1017.0 1010.4
12 19.08 ЮЗ 1 н/о н/о +16.3 +7.2 55 +17 +17 1016.7 1010.1
18 19.08 Ю 2 10 км 6/4 600 м
[Cb cap Ci fib]
+11.1 +8.8 86 +10 +10 1016.6 1009.9
21 19.08 Ю 3 10 км {ливн. осадки} 8/4 600 м
[Cb cap Ci fib]
+10.3 +9.1 92 +8 +8 1016.0 1009.3
03 20.08 З 1 10 км в посл. час ливневой дождь 10/10 300 м
[Cb cap]
+12.4 +11.3 93 +12 +12 1017.3 1010.7 +9.8 0.8
06 20.08 З 1 н/о н/о +13.1 +12.0 93 +13 +13 1017.9 1011.2
12 20.08 СЗ 2 н/о н/о +14.9 +6.7 58 +15 +15 1019.2 1012.6
18 20.08 Ю 1 10 км ясно +4.1 +3.4 95 +3 +3 1020.7 1013.8
21 20.08 штиль 0 10 км 3/0
[Ac trans]
+3.0 +2.3 95 +2 +2 1020.5 1013.6
00 21.08 штиль 0 10 км 10/0
[Ac und]
+4.4 +3.8 96 +3 +3 1020.9 1014.0
03 21.08 Ю 3 10 км 10/0
[Ac und]
+12.1 +8.4 78 +11 +12 1020.1 1013.5 +2.5
06 21.08 Ю 3 н/о н/о +15.8 +10.3 70 +15 +15 1019.4 1012.8
09 21.08 Ю 3 10 км 10/0
[Ac und]
+18.2 +11.3 64 +19 +20 1017.7 1011.1
12 21.08 ЮВ 2 н/о н/о +17.4 +13.4 77 +18 +18 1016.6 1010.1
15 21.08 Ю 3 10 км {ливн. осадки} 10/10 600 м
[Cb cap]
+16.1 +13.6 85 +16 +16 1015.2 1008.7 +18.5 0.4
18 21.08 Ю 2 10 км {ливн. осадки} 10/10 600 м
[Cb cap]
+17.0 +14.3 84 +17 +17 1014.3 1007.8
21 21.08 Ю 2 10 км 10/10 600 м
[Cb cap]
+16.6 +13.9 84 +17 +17 1013.2 1006.7
03 22.08 З 1 4000 м слабый ливневой дождь 10/10 600 м
[Cb cap]
+16.0 +15.2 95 +17 +17 1012.4 1005.9 +15.7 2
06 22.08 З 3 10 км {ливн. осадки} 10/3 600 м
[Cu hum Ci fib]
+19.1 +14.1 73 +21 +25 комфорт 1014.4 1007.8
09 22.08 З 3 10 км 6/6 600 м
[Cb cap]
+21.1 +8.9 46 +22 +25 комфорт 1015.6 1009.1
12 22.08 З 3 10 км 9/6 600 м
[Cb cap Ci fib]
+20.2 +8.6 47 +22 +22 комфорт 1016.2 1009.7
18 22.08 Ю 1 10 км 10/0
[Ci fib]
+11.3 +9.9 91 +11 +11 1019.4 1012.7
21 22.08 Ю 2 10 км 10/0
[Ci fib]
+10.9 +9.8 93 +9 +9 1020.2 1013.5
00 23.08 Ю 2 10 км 10/0
[Ci fib]
+10.4 +9.4 94 +9 +9 1020.6 1013.9
03 23.08 ЮЗ 1 10 км 10/0
[Ac trans Ci fib]
+15.5 +12.0 80 +16 +18 1021.3 1014.7 +8.4
06 23.08 Ю 1 10 км 10/10 600 м
[Sc]
+18.3 +12.9 71 +20 +20 1021.2 1014.7
09 23.08 ЮЗ 3 10 км {ливн. осадки} 10/3 600 м
[Cb cap Ci fib]
+20.7 +13.7 64 +24 +27 комфорт 1020.1 1013.6
12 23.08 ЮЗ 1 н/о н/о +19.7 +14.6 72 +23 +23 комфорт 1019.7 1013.2
18 23.08 ЮЗ 2 4000 м гроза без осадков 10/10 600 м
[Cb cap]
+18.5 +15.0 80 +20 +20 1017.7 1011.2
21 23.08 ЮЗ 1 10 км {гроза} ясно +18.0 +14.9 82 +19 +19 1017.8 1011.3
03 24.08 СЗ 1 10 км 10/3 600 м
[Cb cap Ci fib]
+19.4 +16.3 82 +22 +25 комфорт 1020.3 1013.8 +16.3 1

 

Местоположение метеостанции Ваховск (Ханты-Мансийский АО, Россия): широта 60.95 долгота 78.77 высота над уровнем моря 56 м.

В архиве по умолчанию представлена погода в Ваховске за последнюю неделю. Архивные данные за месяц целиком и за предыдущие месяцы, начиная с января 2011 года, Вы можете получить, выбрав интересующий диапазон дат из раскрывающегося списка и нажав кнопку "Ввод!".

Внимание! Время в таблицах - всемирное. Для получения местного времени необходимо прибавить поправку, которая в Ваховске равна 5 ч.

Смотрите также архив погоды в соседних городах и на ближайших метеорологических станциях:

Погода в Александровском (Томская область, Россия) (76 км)
Погода в Ларьяке (Ханты-Мансийский АО, Россия) (81 км)
Погода в Нижневартовске (Ханты-Мансийский АО, Россия) (117 км)
Погода в Радужном (Ханты-Мансийский АО, Россия) (154 км)
Погода в Прохоркино (Томская область, Россия) (164 км)
Погода в Среднем Васюгане (Томская область, Россия) (195 км)
Погода в Корликах (Ханты-Мансийский АО, Россия) (206 км)
Погода в Напасе (Томская область, Россия) (213 км)
Погода в Каргасоке (Томская область, Россия) (239 км)
Погода в Угуте (Ханты-Мансийский АО, Россия) (263 км)

Пояснения к столбцам:

Ветер - указаны скорость ветра в м/с - средняя за 10 мин, порывы в срок и между сроками (в фигурных скобках) и направление, откуда дует ветер: С - северный, СВ - северо-восточный, В - восточный, ЮВ - юго-восточный, Ю - южный, ЮЗ - юго-западный, З - западный, СЗ - северо-западный.
Видимость - горизонтальная дальность видимости в метрах или километрах. При видимости от 1 до 10 км при отсутствии осадков обычно наблюдается дымка, при ухудшении видимости до 1 км и менее - туман. В сухую погоду видимость может ухудшаться дымом, пылью или мглою.
Явления - указаны атмосферные явления, наблюдавшиеся в срок или в последний час перед сроком; фигурными скобками обозначены явления, наблюдавшиеся между сроками (за 1-3 часа до срока); квадратными скобками обозначены град или гололедные отложения с указанием их диаметра в мм.
Облачность - указаны через наклонную черту общая и нижняя облачность в баллах и высота нижней границы облаков в метрах; квадратными скобками обозначены формы облаков: Ci - перистые, Cs - перисто-слоистые, Cc - перисто-кучевые, Ac - высококучевые, As - высокослоистые, Sc - слоисто-кучевые, Ns - слоисто-дождевые, Cu - кучевые, Cb - кучево-дождевые. Подробнее классификацию облаков см. в Атласе облаков (PDF).
T - Температура воздуха - температура, измеренная на высоте 2 м над землей.
Td - Температура точки росы - температура, при понижении до которой содержащийся в воздухе водяной пар достигнет насыщения.
f - Относительная влажность воздуха - влажноcть воздуха, измеренная на высоте 2 м над землей.
Te - Эффективная температура - температура, которую ощущает одетый по сезону человек в тени. Характеристика душности погоды. При расчете учитывается влияние влажности воздуха и скорости ветра на теплоощущения человека.
Tes - Эффективная температура на солнце - температура, которую ощущает человек, с поправкой на солнечный нагрев. Характеристика знойности погоды. Зависит от высоты солнца над горизонтом, облачности и скорости ветра. Ночью, в пасмурную погоду, а также при ветре 12 м/с и более поправка равна нулю.
P - Атмосферное давление - приведенное к уровню моря атмосферное давление.
Po - Атмосферное давление - измеренное на уровне метеостанции атмосферное давление.
Tmin - Минимальная температура - минимум температуры воздуха на высоте 2 м над землей.
Tmax - Максимальная температура - максимум температуры воздуха на высоте 2 м над землей.
R - Количество осадков - Количество выпавших осадков за период времени, мм. При наведении курсора мыши на число - период времени, за который выпало указанное количество осадков.
R24 - Количество осадков - Количество выпавших осадков за 24 часа, мм.
S - Снежный покров - Высота снежного покрова, см. При наведении курсора мыши на число - состояние снежного покрова и степень покрытия местности в баллах.